Time,TemperatureF,DewpointF,PressureIn,WindDirection,WindDirectionDegrees,WindSpeedMPH,WindSpeedGustMPH,Humidity,HourlyPrecipIn,Conditions,Clouds,dailyrainin,SoftwareType,DateUTC
2013-11-28 00:00:00,22.3,16.8,30.23,SSW,202,2.0,12.0,79,0.00,,OVC,0.00,VWS V14.01,2013-11-28 05:00:00,
2013-11-28 01:00:00,21.8,15.7,30.25,SSW,202,1.0,10.0,77,0.00,,OVC,0.00,VWS V14.01,2013-11-28 06:00:00,
2013-11-28 02:00:00,21.6,15.2,30.28,WNW,292,3.0,11.0,76,0.00,,OVC,0.00,VWS V14.01,2013-11-28 07:00:00,
2013-11-28 03:00:00,21.5,15.4,30.31,SW,225,3.0,15.0,77,0.00,,OVC,0.00,VWS V14.01,2013-11-28 08:00:00,
2013-11-28 04:00:00,21.2,15.7,30.33,SSW,202,3.0,26.0,79,0.00,,OVC,0.00,VWS V14.01,2013-11-28 09:00:00,
2013-11-28 05:00:00,21.4,16.2,30.34,NNE,22,4.0,15.0,80,0.00,,OVC,0.00,VWS V14.01,2013-11-28 10:00:00,
2013-11-28 06:00:00,24.3,15.3,30.36,SSE,158,0.0,7.0,68,0.00,,OVC,0.00,VWS V14.01,2013-11-28 11:00:00,
2013-11-28 07:00:00,26.3,13.1,30.38,SW,225,0.0,4.0,57,0.00,,OVC,0.00,VWS V14.01,2013-11-28 12:00:00,
2013-11-28 08:00:00,30.0,11.7,30.41,SW,225,0.0,1.0,46,0.00,,OVC,0.00,VWS V14.01,2013-11-28 13:00:00,
2013-11-28 09:00:00,25.3,15.2,30.45,SW,225,0.0,2.0,65,0.00,,OVC,0.00,VWS V14.01,2013-11-28 14:00:00,
2013-11-28 10:00:00,28.1,17.5,30.48,SW,225,0.0,1.0,64,0.00,,OVC,0.00,VWS V14.01,2013-11-28 15:00:00,
2013-11-28 11:00:00,32.1,20.6,30.49,SW,225,0.0,2.0,62,0.00,,OVC,0.00,VWS V14.01,2013-11-28 16:00:00,
2013-11-28 12:00:00,35.4,21.7,30.48,SW,225,0.0,3.0,57,0.00,,OVC,0.00,VWS V14.01,2013-11-28 17:00:00,
2013-11-28 13:00:00,40.1,24.8,30.46,SW,225,0.0,3.0,54,0.00,,OVC,0.00,VWS V14.01,2013-11-28 18:00:00,
2013-11-28 14:00:00,42.4,25.6,30.45,West,270,0.0,4.0,51,0.00,,OVC,0.00,VWS V14.01,2013-11-28 19:00:00,
2013-11-28 15:00:00,43.1,24.3,30.45,SW,225,0.0,5.0,47,0.00,,OVC,0.00,VWS V14.01,2013-11-28 20:00:00,
2013-11-28 16:00:00,41.7,24.5,30.46,SW,225,0.0,6.0,50,0.00,,OVC,0.00,VWS V14.01,2013-11-28 21:00:00,
2013-11-28 17:00:00,38.9,23.2,30.48,WNW,292,0.0,2.0,53,0.00,,OVC,0.00,VWS V14.01,2013-11-28 22:00:00,
2013-11-28 18:00:00,35.2,21.9,30.50,West,270,0.0,1.0,58,0.00,,OVC,0.00,VWS V14.01,2013-11-28 23:00:00,
2013-11-28 19:00:00,34.7,23.0,30.52,West,270,0.0,1.0,62,0.00,,OVC,0.00,VWS V14.01,2013-11-29 00:00:00,
2013-11-28 20:00:00,34.5,23.2,30.53,West,270,0.0,3.0,63,0.00,,OVC,0.00,VWS V14.01,2013-11-29 01:00:00,
2013-11-28 21:00:00,33.6,24.5,30.53,West,270,0.0,2.0,69,0.00,,OVC,0.00,VWS V14.01,2013-11-29 02:00:00,
2013-11-28 22:00:00,33.0,24.6,30.54,West,270,0.0,1.0,71,0.00,,OVC,0.00,VWS V14.01,2013-11-29 03:00:00,
2013-11-28 23:00:00,33.2,24.5,30.54,West,270,0.0,1.0,70,0.00,,OVC,0.00,VWS V14.01,2013-11-29 04:00:00,